Year,Month,Day,Hour,Minute,Value (Times are PST for windspeed in km/hr)
2015,06,11,00,00,0.00
2015,06,11,00,01,0.00
2015,06,11,00,02,0.00
2015,06,11,00,03,0.00
2015,06,11,00,04,0.20
2015,06,11,00,05,1.00
2015,06,11,00,06,0.60
2015,06,11,00,07,0.00
2015,06,11,00,08,0.40
2015,06,11,00,09,1.20
2015,06,11,00,10,0.90
2015,06,11,00,11,0.90
2015,06,11,00,12,0.20
2015,06,11,00,13,0.20
2015,06,11,00,14,2.00
2015,06,11,00,15,2.40
2015,06,11,00,16,2.60
2015,06,11,00,17,2.90
2015,06,11,00,18,4.20
2015,06,11,00,19,2.70
2015,06,11,00,20,2.90
2015,06,11,00,21,1.10
2015,06,11,00,22,0.00
2015,06,11,00,23,0.00
2015,06,11,00,24,0.30
2015,06,11,00,25,0.60
2015,06,11,00,26,0.20
2015,06,11,00,27,0.50
2015,06,11,00,28,1.90
2015,06,11,00,29,3.40
2015,06,11,00,30,2.70
2015,06,11,00,31,1.90
2015,06,11,00,32,1.20
2015,06,11,00,33,0.10
2015,06,11,00,34,0.50
2015,06,11,00,35,0.40
2015,06,11,00,36,0.60
2015,06,11,00,37,0.00
2015,06,11,00,38,0.00
2015,06,11,00,39,0.00
2015,06,11,00,40,0.70
2015,06,11,00,41,1.30
2015,06,11,00,42,0.90
2015,06,11,00,43,0.60
2015,06,11,00,44,0.80
2015,06,11,00,45,0.80
2015,06,11,00,46,0.80
2015,06,11,00,47,0.00
2015,06,11,00,48,0.00
2015,06,11,00,49,0.00
2015,06,11,00,50,0.00
2015,06,11,00,51,0.00
2015,06,11,00,52,0.00
2015,06,11,00,53,0.00
2015,06,11,00,54,0.30
2015,06,11,00,55,0.00
2015,06,11,00,56,0.10
2015,06,11,00,57,0.40
2015,06,11,00,58,1.20
2015,06,11,00,59,1.40
2015,06,11,01,00,1.40
2015,06,11,01,01,1.70
2015,06,11,01,02,1.40
2015,06,11,01,03,1.80
2015,06,11,01,04,1.00
2015,06,11,01,05,1.00
2015,06,11,01,06,0.60
2015,06,11,01,07,0.30
2015,06,11,01,08,2.50
2015,06,11,01,09,1.90
2015,06,11,01,10,1.20
2015,06,11,01,11,1.00
2015,06,11,01,12,0.10
2015,06,11,01,13,0.00
2015,06,11,01,14,0.00
2015,06,11,01,15,0.80
2015,06,11,01,16,1.30
2015,06,11,01,17,0.60
2015,06,11,01,18,0.30
2015,06,11,01,19,0.70
2015,06,11,01,20,0.50
2015,06,11,01,21,1.50
2015,06,11,01,22,1.80
2015,06,11,01,23,1.50
2015,06,11,01,24,1.60
2015,06,11,01,25,1.60
2015,06,11,01,26,1.70
2015,06,11,01,27,0.70
2015,06,11,01,28,0.10
2015,06,11,01,29,0.00
2015,06,11,01,30,0.00
2015,06,11,01,31,0.00
2015,06,11,01,32,0.20
2015,06,11,01,33,0.00
2015,06,11,01,34,0.00
2015,06,11,01,35,0.00
2015,06,11,01,36,0.00
2015,06,11,01,37,0.00
2015,06,11,01,38,0.00
2015,06,11,01,39,0.20
2015,06,11,01,40,1.40
2015,06,11,01,41,2.30
2015,06,11,01,42,1.70
2015,06,11,01,43,1.30
2015,06,11,01,44,0.10
2015,06,11,01,45,0.10
2015,06,11,01,46,0.20
2015,06,11,01,47,0.00
2015,06,11,01,48,0.00
2015,06,11,01,49,0.00
2015,06,11,01,50,0.00
2015,06,11,01,51,0.00
2015,06,11,01,52,0.00
2015,06,11,01,53,0.00
2015,06,11,01,54,0.00
2015,06,11,01,55,0.00
2015,06,11,01,56,0.00
2015,06,11,01,57,0.00
2015,06,11,01,58,0.10
2015,06,11,01,59,0.00
2015,06,11,02,00,0.10
2015,06,11,02,01,0.60
2015,06,11,02,02,0.70
2015,06,11,02,03,1.20
2015,06,11,02,04,1.10
2015,06,11,02,05,0.10
2015,06,11,02,06,0.30
2015,06,11,02,07,0.80
2015,06,11,02,08,1.90
2015,06,11,02,09,2.50
2015,06,11,02,10,2.50
2015,06,11,02,11,2.50
2015,06,11,02,12,2.60
2015,06,11,02,13,2.80
2015,06,11,02,14,2.10
2015,06,11,02,15,2.40
2015,06,11,02,16,2.30
2015,06,11,02,17,0.70
2015,06,11,02,18,0.10
2015,06,11,02,19,0.00
2015,06,11,02,20,0.00
2015,06,11,02,21,0.90
2015,06,11,02,22,1.80
2015,06,11,02,23,3.20
2015,06,11,02,24,4.10
2015,06,11,02,25,3.60
2015,06,11,02,26,4.20
2015,06,11,02,27,3.40
2015,06,11,02,28,3.00
2015,06,11,02,29,3.20
2015,06,11,02,30,3.30
2015,06,11,02,31,3.60
2015,06,11,02,32,2.50
2015,06,11,02,33,2.00
2015,06,11,02,34,1.60
2015,06,11,02,35,2.60
2015,06,11,02,36,1.50
2015,06,11,02,37,0.20
2015,06,11,02,38,0.10
2015,06,11,02,39,0.10
2015,06,11,02,40,0.00
2015,06,11,02,41,0.00
2015,06,11,02,42,0.00
2015,06,11,02,43,0.00
2015,06,11,02,44,0.00
2015,06,11,02,45,0.00
2015,06,11,02,46,0.00
2015,06,11,02,47,0.00
2015,06,11,02,48,0.00
2015,06,11,02,49,0.00
2015,06,11,02,50,0.00
2015,06,11,02,51,0.10
2015,06,11,02,52,0.10
2015,06,11,02,53,0.00
2015,06,11,02,54,0.20
2015,06,11,02,55,1.00
2015,06,11,02,56,0.10
2015,06,11,02,57,0.00
2015,06,11,02,58,0.00
2015,06,11,02,59,0.00
2015,06,11,03,00,0.10
2015,06,11,03,01,0.00
2015,06,11,03,02,0.00
2015,06,11,03,03,0.00
2015,06,11,03,04,0.00
2015,06,11,03,05,0.00
2015,06,11,03,06,0.00
2015,06,11,03,07,0.00
2015,06,11,03,08,0.00
2015,06,11,03,09,0.00
2015,06,11,03,10,1.60
2015,06,11,03,11,2.50
2015,06,11,03,12,1.10
2015,06,11,03,13,0.00
2015,06,11,03,14,0.00
2015,06,11,03,15,0.00
2015,06,11,03,16,1.20
2015,06,11,03,17,2.40
2015,06,11,03,18,3.00
2015,06,11,03,19,3.30
2015,06,11,03,20,1.70
2015,06,11,03,21,0.30
2015,06,11,03,22,0.00
2015,06,11,03,23,0.00
2015,06,11,03,24,0.10
2015,06,11,03,25,2.00
2015,06,11,03,26,0.30
2015,06,11,03,27,1.10
2015,06,11,03,28,0.10
2015,06,11,03,29,1.60
2015,06,11,03,30,1.90
2015,06,11,03,31,0.20
2015,06,11,03,32,2.40
2015,06,11,03,33,1.90
2015,06,11,03,34,1.20
2015,06,11,03,35,0.20
2015,06,11,03,36,0.10
2015,06,11,03,37,0.70
2015,06,11,03,38,0.00
2015,06,11,03,39,1.90
2015,06,11,03,40,1.40
2015,06,11,03,41,1.10
2015,06,11,03,42,0.50
2015,06,11,03,43,0.10
2015,06,11,03,44,0.00
2015,06,11,03,45,0.00
2015,06,11,03,46,0.00
2015,06,11,03,47,0.00
2015,06,11,03,48,0.00
2015,06,11,03,49,0.00
2015,06,11,03,50,0.00
2015,06,11,03,51,0.00
2015,06,11,03,52,0.00
2015,06,11,03,53,0.00
2015,06,11,03,54,0.00
2015,06,11,03,55,0.30
2015,06,11,03,56,0.30
2015,06,11,03,57,1.30
2015,06,11,03,58,0.50
2015,06,11,03,59,0.00
2015,06,11,04,00,0.90
2015,06,11,04,01,1.80
2015,06,11,04,02,0.40
2015,06,11,04,03,0.20
2015,06,11,04,04,0.00
2015,06,11,04,05,0.00
2015,06,11,04,06,0.00
2015,06,11,04,07,0.00
2015,06,11,04,08,0.60
2015,06,11,04,09,0.10
2015,06,11,04,10,0.00
2015,06,11,04,11,0.00
2015,06,11,04,12,0.20
2015,06,11,04,13,0.40
2015,06,11,04,14,1.70
2015,06,11,04,15,0.80
2015,06,11,04,16,0.80
2015,06,11,04,17,0.20
2015,06,11,04,18,0.20
2015,06,11,04,19,1.80
2015,06,11,04,20,0.90
2015,06,11,04,21,1.60
2015,06,11,04,22,1.30
2015,06,11,04,23,0.70
2015,06,11,04,24,0.40
2015,06,11,04,25,1.70
2015,06,11,04,26,2.40
2015,06,11,04,27,1.80
2015,06,11,04,28,1.90
2015,06,11,04,29,1.40
2015,06,11,04,30,0.30
2015,06,11,04,31,0.60
2015,06,11,04,32,0.10
2015,06,11,04,33,1.40
2015,06,11,04,34,1.70
2015,06,11,04,35,0.80
2015,06,11,04,36,0.20
2015,06,11,04,37,2.20
2015,06,11,04,38,1.60
2015,06,11,04,39,0.60
2015,06,11,04,40,0.90
2015,06,11,04,41,1.00
2015,06,11,04,42,0.80
2015,06,11,04,43,0.20
2015,06,11,04,44,2.40
2015,06,11,04,45,0.40
2015,06,11,04,46,0.80
2015,06,11,04,47,0.10
2015,06,11,04,48,0.10
2015,06,11,04,49,0.00
2015,06,11,04,50,0.00
2015,06,11,04,51,1.00
2015,06,11,04,52,0.80
2015,06,11,04,53,1.10
2015,06,11,04,54,0.60
2015,06,11,04,55,0.00
2015,06,11,04,56,0.00
2015,06,11,04,57,0.00
2015,06,11,04,58,0.00
2015,06,11,04,59,0.10
2015,06,11,05,00,0.00
2015,06,11,05,01,0.00
2015,06,11,05,02,0.00
2015,06,11,05,03,0.30
2015,06,11,05,04,0.10
2015,06,11,05,05,0.20
2015,06,11,05,06,0.80
2015,06,11,05,07,0.40
2015,06,11,05,08,1.20
2015,06,11,05,09,0.30
2015,06,11,05,10,0.00
2015,06,11,05,11,0.00
2015,06,11,05,12,0.00
2015,06,11,05,13,0.00
2015,06,11,05,14,0.00
2015,06,11,05,15,0.00
2015,06,11,05,16,0.10
2015,06,11,05,17,0.00
2015,06,11,05,18,0.60
2015,06,11,05,19,0.00
2015,06,11,05,20,0.00
2015,06,11,05,21,0.00
2015,06,11,05,22,0.00
2015,06,11,05,23,0.90
2015,06,11,05,24,0.30
2015,06,11,05,25,0.50
2015,06,11,05,26,0.80
2015,06,11,05,27,0.80
2015,06,11,05,28,1.20
2015,06,11,05,29,0.80
2015,06,11,05,30,0.70
2015,06,11,05,31,1.30
2015,06,11,05,32,1.40
2015,06,11,05,33,1.00
2015,06,11,05,34,1.90
2015,06,11,05,35,0.70
2015,06,11,05,36,0.10
2015,06,11,05,37,1.60
2015,06,11,05,38,0.80
2015,06,11,05,39,1.30
2015,06,11,05,40,0.90
2015,06,11,05,41,0.60
2015,06,11,05,42,0.20
2015,06,11,05,43,1.80
2015,06,11,05,44,0.20
2015,06,11,05,45,0.10
2015,06,11,05,46,0.50
2015,06,11,05,47,0.90
2015,06,11,05,48,0.60
2015,06,11,05,49,1.00
2015,06,11,05,50,0.20
2015,06,11,05,51,0.00
2015,06,11,05,52,0.00
2015,06,11,05,53,0.00
2015,06,11,05,54,0.00
2015,06,11,05,55,0.00
2015,06,11,05,56,0.00
2015,06,11,05,57,0.20
2015,06,11,05,58,0.50
2015,06,11,05,59,0.00
2015,06,11,06,00,0.00
2015,06,11,06,01,0.00
2015,06,11,06,02,0.30
2015,06,11,06,03,0.10
2015,06,11,06,04,0.30
2015,06,11,06,05,0.20
2015,06,11,06,06,0.20
2015,06,11,06,07,1.10
2015,06,11,06,08,0.20
2015,06,11,06,09,0.20
2015,06,11,06,10,0.00
2015,06,11,06,11,0.00
2015,06,11,06,12,0.00
2015,06,11,06,13,0.00
2015,06,11,06,14,0.00
2015,06,11,06,15,0.00
2015,06,11,06,16,0.00
2015,06,11,06,17,0.20
2015,06,11,06,18,2.50
2015,06,11,06,19,1.70
2015,06,11,06,20,1.70
2015,06,11,06,21,1.80
2015,06,11,06,22,2.20
2015,06,11,06,23,2.70
2015,06,11,06,24,1.10
2015,06,11,06,25,2.00
2015,06,11,06,26,0.90
2015,06,11,06,27,0.00
2015,06,11,06,28,0.00
2015,06,11,06,29,0.10
2015,06,11,06,30,0.10
2015,06,11,06,31,0.00
2015,06,11,06,32,0.00
2015,06,11,06,33,0.60
2015,06,11,06,34,0.70
2015,06,11,06,35,0.10
2015,06,11,06,36,0.00
2015,06,11,06,37,0.00
2015,06,11,06,38,0.00
2015,06,11,06,39,0.00
2015,06,11,06,40,0.00
2015,06,11,06,41,0.00
2015,06,11,06,42,0.00
2015,06,11,06,43,0.00
2015,06,11,06,44,0.00
2015,06,11,06,45,0.00
2015,06,11,06,46,0.00
2015,06,11,06,47,0.00
2015,06,11,06,48,0.00
2015,06,11,06,49,0.10
2015,06,11,06,50,0.00
2015,06,11,06,51,0.00
2015,06,11,06,52,0.00
2015,06,11,06,53,0.00
2015,06,11,06,54,0.20
2015,06,11,06,55,0.20
2015,06,11,06,56,0.00
2015,06,11,06,57,0.00
2015,06,11,06,58,0.00
2015,06,11,06,59,0.00
2015,06,11,07,00,0.00
2015,06,11,07,01,0.00
2015,06,11,07,02,0.00
2015,06,11,07,03,0.00
2015,06,11,07,04,0.00
2015,06,11,07,05,0.00
2015,06,11,07,06,0.00
2015,06,11,07,07,0.00
2015,06,11,07,08,0.00
2015,06,11,07,09,0.00
2015,06,11,07,10,0.00
2015,06,11,07,11,1.10
2015,06,11,07,12,0.70
2015,06,11,07,13,0.00
2015,06,11,07,14,1.20
2015,06,11,07,15,2.40
2015,06,11,07,16,2.50
2015,06,11,07,17,2.40
2015,06,11,07,18,2.90
2015,06,11,07,19,2.20
2015,06,11,07,20,2.60
2015,06,11,07,21,1.80
2015,06,11,07,22,1.30
2015,06,11,07,23,2.10
2015,06,11,07,24,2.00
2015,06,11,07,25,1.60
2015,06,11,07,26,1.80
2015,06,11,07,27,1.30
2015,06,11,07,28,0.80
2015,06,11,07,29,0.00
2015,06,11,07,30,0.00
2015,06,11,07,31,0.40
2015,06,11,07,32,4.20
2015,06,11,07,33,2.00
2015,06,11,07,34,2.20
2015,06,11,07,35,1.20
2015,06,11,07,36,1.70
2015,06,11,07,37,1.30
2015,06,11,07,38,0.40
2015,06,11,07,39,0.90
2015,06,11,07,40,2.90
2015,06,11,07,41,2.80
2015,06,11,07,42,2.70
2015,06,11,07,43,2.30
2015,06,11,07,44,0.50
2015,06,11,07,45,1.80
2015,06,11,07,46,3.40
2015,06,11,07,47,1.20
2015,06,11,07,48,1.70
2015,06,11,07,49,0.80
2015,06,11,07,50,1.60
2015,06,11,07,51,2.20
2015,06,11,07,52,4.40
2015,06,11,07,53,2.50
2015,06,11,07,54,2.10
2015,06,11,07,55,3.30
2015,06,11,07,56,1.50
2015,06,11,07,57,1.50
2015,06,11,07,58,1.60
2015,06,11,07,59,1.50
2015,06,11,08,00,1.40
2015,06,11,08,01,2.00
2015,06,11,08,02,3.30
2015,06,11,08,03,2.10
2015,06,11,08,04,1.80
2015,06,11,08,05,1.20
2015,06,11,08,06,1.00
2015,06,11,08,07,1.40
2015,06,11,08,08,3.80
2015,06,11,08,09,1.90
2015,06,11,08,10,1.70
2015,06,11,08,11,3.20
2015,06,11,08,12,2.10
2015,06,11,08,13,2.90
2015,06,11,08,14,2.40
2015,06,11,08,15,2.30
2015,06,11,08,16,0.70
2015,06,11,08,17,1.90
2015,06,11,08,18,2.30
2015,06,11,08,19,2.50
2015,06,11,08,20,1.20
2015,06,11,08,21,2.80
2015,06,11,08,22,0.60
2015,06,11,08,23,0.00
2015,06,11,08,24,2.50
2015,06,11,08,25,0.70
2015,06,11,08,26,2.10
2015,06,11,08,27,2.90
2015,06,11,08,28,3.10
2015,06,11,08,29,1.70
2015,06,11,08,30,3.40
2015,06,11,08,31,2.60
2015,06,11,08,32,4.10
2015,06,11,08,33,4.20
2015,06,11,08,34,2.40
2015,06,11,08,35,0.80
2015,06,11,08,36,1.80
2015,06,11,08,37,1.30
2015,06,11,08,38,3.40
2015,06,11,08,39,7.60
2015,06,11,08,40,5.30
2015,06,11,08,41,6.70
2015,06,11,08,42,6.60
2015,06,11,08,43,4.90
2015,06,11,08,44,3.10
2015,06,11,08,45,3.40
2015,06,11,08,46,4.10
2015,06,11,08,47,2.40
2015,06,11,08,48,2.30
2015,06,11,08,49,3.90
2015,06,11,08,50,4.40
2015,06,11,08,51,4.70
2015,06,11,08,52,4.50
2015,06,11,08,53,2.60
2015,06,11,08,54,8.00
2015,06,11,08,55,5.30
2015,06,11,08,56,7.10
2015,06,11,08,57,5.30
2015,06,11,08,58,5.80
2015,06,11,08,59,3.80
2015,06,11,09,00,3.10
2015,06,11,09,01,2.60
2015,06,11,09,02,1.90
2015,06,11,09,03,5.10
2015,06,11,09,04,6.10
2015,06,11,09,05,7.60
2015,06,11,09,06,6.30
2015,06,11,09,07,2.80
2015,06,11,09,08,2.40
2015,06,11,09,09,5.40
2015,06,11,09,10,4.10
2015,06,11,09,11,1.00
2015,06,11,09,12,2.80
2015,06,11,09,13,3.50
2015,06,11,09,14,4.00
2015,06,11,09,15,2.90
2015,06,11,09,16,4.10
2015,06,11,09,17,2.80
2015,06,11,09,18,2.80
2015,06,11,09,19,2.80
2015,06,11,09,20,3.70
2015,06,11,09,21,4.50
2015,06,11,09,22,2.30
2015,06,11,09,23,3.30
2015,06,11,09,24,4.80
2015,06,11,09,25,4.80
2015,06,11,09,26,3.80
2015,06,11,09,27,2.20
2015,06,11,09,28,2.00
2015,06,11,09,29,2.00
2015,06,11,09,30,1.60
2015,06,11,09,31,2.80
2015,06,11,09,32,1.60
2015,06,11,09,33,2.50
2015,06,11,09,34,3.20
2015,06,11,09,35,6.00
2015,06,11,09,36,5.80
2015,06,11,09,37,5.60
2015,06,11,09,38,2.30
2015,06,11,09,39,3.00
2015,06,11,09,40,4.60
2015,06,11,09,41,2.90
2015,06,11,09,42,2.70
2015,06,11,09,43,3.50
2015,06,11,09,44,2.10
2015,06,11,09,45,3.00
2015,06,11,09,46,4.40
2015,06,11,09,47,3.70
2015,06,11,09,48,5.50
2015,06,11,09,49,5.30
2015,06,11,09,50,5.00
2015,06,11,09,51,5.30
2015,06,11,09,52,2.60
2015,06,11,09,53,3.50
2015,06,11,09,54,2.30
2015,06,11,09,55,5.30
2015,06,11,09,56,4.80
2015,06,11,09,57,3.70
2015,06,11,09,58,0.80
2015,06,11,09,59,8.10
2015,06,11,10,00,9.30
2015,06,11,10,01,7.80
2015,06,11,10,02,4.30
2015,06,11,10,03,4.20
2015,06,11,10,04,5.10
2015,06,11,10,05,2.50
2015,06,11,10,06,0.70
2015,06,11,10,07,1.40
2015,06,11,10,08,1.90
2015,06,11,10,09,1.60
2015,06,11,10,10,6.00
2015,06,11,10,11,7.20
2015,06,11,10,12,1.70
2015,06,11,10,13,2.70
2015,06,11,10,14,3.50
2015,06,11,10,15,1.80
2015,06,11,10,16,2.30
2015,06,11,10,17,8.20
2015,06,11,10,18,6.50
2015,06,11,10,19,6.10
2015,06,11,10,20,5.40
2015,06,11,10,21,8.30
2015,06,11,10,22,6.90
2015,06,11,10,23,4.70
2015,06,11,10,24,5.10
2015,06,11,10,25,3.60
2015,06,11,10,26,2.60
2015,06,11,10,27,1.20
2015,06,11,10,28,3.00
2015,06,11,10,29,1.00
2015,06,11,10,30,1.90
2015,06,11,10,31,2.80
2015,06,11,10,32,1.20
2015,06,11,10,33,2.90
2015,06,11,10,34,1.70
2015,06,11,10,35,6.70
2015,06,11,10,36,5.40
2015,06,11,10,37,2.30
2015,06,11,10,38,6.60
2015,06,11,10,39,9.90
2015,06,11,10,40,6.90
2015,06,11,10,41,4.00
2015,06,11,10,42,5.60
2015,06,11,10,43,3.80
2015,06,11,10,44,2.50
2015,06,11,10,45,5.40
2015,06,11,10,46,4.40
2015,06,11,10,47,2.30
2015,06,11,10,48,6.70
2015,06,11,10,49,4.80
2015,06,11,10,50,3.70
2015,06,11,10,51,4.20
2015,06,11,10,52,5.10
2015,06,11,10,53,5.60
2015,06,11,10,54,5.20
2015,06,11,10,55,7.70
2015,06,11,10,56,5.20
2015,06,11,10,57,3.50
2015,06,11,10,58,4.60
2015,06,11,10,59,8.00
2015,06,11,11,00,8.00
2015,06,11,11,01,8.20
2015,06,11,11,02,8.70
2015,06,11,11,03,8.70
2015,06,11,11,04,5.60
2015,06,11,11,05,6.50
2015,06,11,11,06,8.30
2015,06,11,11,07,7.60
2015,06,11,11,08,10.60
2015,06,11,11,09,9.80
2015,06,11,11,10,8.90
2015,06,11,11,11,7.40
2015,06,11,11,12,6.40
2015,06,11,11,13,4.20
2015,06,11,11,14,3.40
2015,06,11,11,15,2.30
2015,06,11,11,16,2.70
2015,06,11,11,17,3.30
2015,06,11,11,18,4.80
2015,06,11,11,19,4.40
2015,06,11,11,20,6.00
2015,06,11,11,21,6.70
2015,06,11,11,22,8.20
2015,06,11,11,23,4.20
2015,06,11,11,24,4.20
2015,06,11,11,25,7.50
2015,06,11,11,26,6.30
2015,06,11,11,27,3.40
2015,06,11,11,28,4.30
2015,06,11,11,29,8.80
2015,06,11,11,30,9.30
2015,06,11,11,31,7.30
2015,06,11,11,32,8.50
2015,06,11,11,33,6.20
2015,06,11,11,34,7.40
2015,06,11,11,35,4.80
2015,06,11,11,36,10.80
2015,06,11,11,37,4.30
2015,06,11,11,38,2.40
2015,06,11,11,39,2.40
2015,06,11,11,40,5.90
2015,06,11,11,41,2.80
2015,06,11,11,42,5.90
2015,06,11,11,43,5.70
2015,06,11,11,44,7.10
2015,06,11,11,45,8.00
2015,06,11,11,46,6.90
2015,06,11,11,47,6.20
2015,06,11,11,48,5.30
2015,06,11,11,49,1.90
2015,06,11,11,50,1.40
2015,06,11,11,51,7.30
2015,06,11,11,52,8.90
2015,06,11,11,53,7.90
2015,06,11,11,54,10.90
2015,06,11,11,55,4.60
2015,06,11,11,56,5.30
2015,06,11,11,57,6.80
2015,06,11,11,58,4.10
2015,06,11,11,59,3.10
2015,06,11,12,00,2.10
2015,06,11,12,01,3.70
2015,06,11,12,02,6.00
2015,06,11,12,03,8.20
2015,06,11,12,04,7.00
2015,06,11,12,05,6.00
2015,06,11,12,06,4.80
2015,06,11,12,07,3.60
2015,06,11,12,08,2.10
2015,06,11,12,09,5.30
2015,06,11,12,10,5.80
2015,06,11,12,11,3.60
2015,06,11,12,12,3.30
2015,06,11,12,13,3.80
2015,06,11,12,14,7.40
2015,06,11,12,15,3.50
2015,06,11,12,16,1.20
2015,06,11,12,17,5.50
2015,06,11,12,18,8.20
2015,06,11,12,19,3.70
2015,06,11,12,20,2.90
2015,06,11,12,21,3.20
2015,06,11,12,22,4.10
2015,06,11,12,23,4.30
2015,06,11,12,24,4.80
2015,06,11,12,25,3.80
2015,06,11,12,26,3.20
2015,06,11,12,27,4.80
2015,06,11,12,28,4.70
2015,06,11,12,29,9.50
2015,06,11,12,30,3.70
2015,06,11,12,31,8.00
2015,06,11,12,32,7.90
2015,06,11,12,33,4.00
2015,06,11,12,34,9.00
2015,06,11,12,35,6.50
2015,06,11,12,36,2.50
2015,06,11,12,37,2.50
2015,06,11,12,38,3.30
2015,06,11,12,39,3.90
2015,06,11,12,40,3.30
2015,06,11,12,41,2.50
2015,06,11,12,42,2.60
2015,06,11,12,43,5.40
2015,06,11,12,44,4.50
2015,06,11,12,45,1.20
2015,06,11,12,46,4.10
2015,06,11,12,47,2.80
2015,06,11,12,48,5.60
2015,06,11,12,49,6.90
2015,06,11,12,50,2.40
2015,06,11,12,51,3.70
2015,06,11,12,52,4.20
2015,06,11,12,53,4.40
2015,06,11,12,54,8.30
2015,06,11,12,55,5.80
2015,06,11,12,56,3.40
2015,06,11,12,57,3.50
2015,06,11,12,58,6.40
2015,06,11,12,59,7.70
2015,06,11,13,00,5.50
2015,06,11,13,01,4.80
2015,06,11,13,02,5.00
2015,06,11,13,03,5.60
2015,06,11,13,04,4.20
2015,06,11,13,05,2.10
2015,06,11,13,06,4.20
2015,06,11,13,07,7.50
2015,06,11,13,08,5.20
2015,06,11,13,09,3.70
2015,06,11,13,10,3.50
2015,06,11,13,11,4.00
2015,06,11,13,12,5.30
2015,06,11,13,13,6.00
2015,06,11,13,14,3.50
2015,06,11,13,15,4.00
2015,06,11,13,16,6.60
2015,06,11,13,17,8.00
2015,06,11,13,18,8.00
2015,06,11,13,19,10.90
2015,06,11,13,20,10.30
2015,06,11,13,21,9.60
2015,06,11,13,22,7.20
2015,06,11,13,23,7.30
2015,06,11,13,24,9.80
2015,06,11,13,25,10.80
2015,06,11,13,26,8.80
2015,06,11,13,27,6.60
2015,06,11,13,28,1.20
2015,06,11,13,29,3.60
2015,06,11,13,30,4.00
2015,06,11,13,31,9.20
2015,06,11,13,32,7.10
2015,06,11,13,33,3.10
2015,06,11,13,34,4.60
2015,06,11,13,35,5.50
2015,06,11,13,36,6.50
2015,06,11,13,37,5.90
2015,06,11,13,38,4.70
2015,06,11,13,39,4.80
2015,06,11,13,40,2.80
2015,06,11,13,41,3.10
2015,06,11,13,42,8.20
2015,06,11,13,43,5.90
2015,06,11,13,44,4.90
2015,06,11,13,45,4.10
2015,06,11,13,46,5.40
2015,06,11,13,47,6.70
2015,06,11,13,48,3.50
2015,06,11,13,49,6.20
2015,06,11,13,50,3.80
2015,06,11,13,51,4.90
2015,06,11,13,52,5.70
2015,06,11,13,53,4.50
2015,06,11,13,54,6.10
2015,06,11,13,55,5.10
2015,06,11,13,56,4.20
2015,06,11,13,57,4.70
2015,06,11,13,58,9.20
2015,06,11,13,59,6.30
2015,06,11,14,00,6.20
2015,06,11,14,01,8.30
2015,06,11,14,02,4.10
2015,06,11,14,03,3.70
2015,06,11,14,04,3.60
2015,06,11,14,05,6.70
2015,06,11,14,06,5.20
2015,06,11,14,07,4.90
2015,06,11,14,08,5.20
2015,06,11,14,09,3.70
2015,06,11,14,10,6.00
2015,06,11,14,11,6.30
2015,06,11,14,12,8.10
2015,06,11,14,13,4.60
2015,06,11,14,14,2.70
2015,06,11,14,15,2.50
2015,06,11,14,16,2.70
2015,06,11,14,17,3.90
2015,06,11,14,18,0.90
2015,06,11,14,19,4.10
2015,06,11,14,20,3.60
2015,06,11,14,21,8.20
2015,06,11,14,22,7.90
2015,06,11,14,23,12.10
2015,06,11,14,24,12.70
2015,06,11,14,25,9.60
2015,06,11,14,26,5.40
2015,06,11,14,27,6.60
2015,06,11,14,28,11.30
2015,06,11,14,29,6.20
2015,06,11,14,30,8.80
2015,06,11,14,31,4.40
2015,06,11,14,32,3.50
2015,06,11,14,33,5.70
2015,06,11,14,34,7.90
2015,06,11,14,35,6.60
2015,06,11,14,36,8.80
2015,06,11,14,37,6.80
2015,06,11,14,38,4.30
2015,06,11,14,39,4.50
2015,06,11,14,40,5.20
2015,06,11,14,41,7.20
2015,06,11,14,42,7.00
2015,06,11,14,43,9.70
2015,06,11,14,44,9.90
2015,06,11,14,45,5.40
2015,06,11,14,46,4.30
2015,06,11,14,47,5.40
2015,06,11,14,48,2.50
2015,06,11,14,49,2.90
2015,06,11,14,50,2.50
2015,06,11,14,51,3.40
2015,06,11,14,52,3.20
2015,06,11,14,53,5.20
2015,06,11,14,54,7.10
2015,06,11,14,55,8.40
2015,06,11,14,56,5.70
2015,06,11,14,57,5.40
2015,06,11,14,58,4.80
2015,06,11,14,59,4.30
2015,06,11,15,00,2.60
2015,06,11,15,01,7.00
2015,06,11,15,02,8.70
2015,06,11,15,03,8.40
2015,06,11,15,04,8.60
2015,06,11,15,05,5.30
2015,06,11,15,06,5.60
2015,06,11,15,07,2.40
2015,06,11,15,08,4.10
2015,06,11,15,09,5.30
2015,06,11,15,10,6.60
2015,06,11,15,11,5.70
2015,06,11,15,12,5.30
2015,06,11,15,13,4.10
2015,06,11,15,14,5.80
2015,06,11,15,15,7.00
2015,06,11,15,16,2.80
2015,06,11,15,17,4.40
2015,06,11,15,18,5.40
2015,06,11,15,19,3.70
2015,06,11,15,20,2.50
2015,06,11,15,21,3.80
2015,06,11,15,22,2.90
2015,06,11,15,23,5.40
2015,06,11,15,24,2.40
2015,06,11,15,25,5.70
2015,06,11,15,26,3.60
2015,06,11,15,27,4.10
2015,06,11,15,28,6.40
2015,06,11,15,29,4.60
2015,06,11,15,30,0.70
2015,06,11,15,31,5.20
2015,06,11,15,32,4.20
2015,06,11,15,33,3.20
2015,06,11,15,34,5.90
2015,06,11,15,35,5.20
2015,06,11,15,36,6.30
2015,06,11,15,37,5.60
2015,06,11,15,38,5.50
2015,06,11,15,39,3.90
2015,06,11,15,40,5.30
2015,06,11,15,41,6.50
2015,06,11,15,42,6.90
2015,06,11,15,43,6.70
2015,06,11,15,44,4.30
2015,06,11,15,45,12.90
2015,06,11,15,46,8.50
2015,06,11,15,47,8.40
2015,06,11,15,48,4.40
2015,06,11,15,49,5.90
2015,06,11,15,50,13.40
2015,06,11,15,51,9.30
2015,06,11,15,52,8.00
2015,06,11,15,53,8.50
2015,06,11,15,54,4.20
2015,06,11,15,55,7.60
2015,06,11,15,56,3.90
2015,06,11,15,57,9.90
2015,06,11,15,58,10.50
2015,06,11,15,59,3.80
2015,06,11,16,00,7.00
2015,06,11,16,01,8.10
2015,06,11,16,02,7.40
2015,06,11,16,03,5.70
2015,06,11,16,04,5.20
2015,06,11,16,05,7.40
2015,06,11,16,06,6.30
2015,06,11,16,07,4.60
2015,06,11,16,08,2.90
2015,06,11,16,09,3.40
2015,06,11,16,10,5.00
2015,06,11,16,11,5.50
2015,06,11,16,12,5.00
2015,06,11,16,13,6.50
2015,06,11,16,14,4.90
2015,06,11,16,15,12.10
2015,06,11,16,16,10.30
2015,06,11,16,17,10.90
2015,06,11,16,18,4.10
2015,06,11,16,19,5.60
2015,06,11,16,20,3.40
2015,06,11,16,21,3.60
2015,06,11,16,22,6.30
2015,06,11,16,23,5.00
2015,06,11,16,24,5.30
2015,06,11,16,25,3.50
2015,06,11,16,26,4.90
2015,06,11,16,27,3.20
2015,06,11,16,28,6.40
2015,06,11,16,29,8.50
2015,06,11,16,30,12.50
2015,06,11,16,31,12.70
2015,06,11,16,32,13.30
2015,06,11,16,33,8.20
2015,06,11,16,34,5.10
2015,06,11,16,35,4.80
2015,06,11,16,36,4.60
2015,06,11,16,37,1.60
2015,06,11,16,38,8.50
2015,06,11,16,39,8.10
2015,06,11,16,40,4.70
2015,06,11,16,41,5.80
2015,06,11,16,42,3.50
2015,06,11,16,43,8.30
2015,06,11,16,44,4.80
2015,06,11,16,45,5.70
2015,06,11,16,46,6.20
2015,06,11,16,47,5.60
2015,06,11,16,48,6.40
2015,06,11,16,49,7.90
2015,06,11,16,50,4.70
2015,06,11,16,51,7.40
2015,06,11,16,52,5.10
2015,06,11,16,53,3.50
2015,06,11,16,54,3.50
2015,06,11,16,55,7.00
2015,06,11,16,56,4.50
2015,06,11,16,57,5.30
2015,06,11,16,58,5.30
2015,06,11,16,59,7.90
2015,06,11,17,00,6.70
2015,06,11,17,01,3.00
2015,06,11,17,02,2.80
2015,06,11,17,03,11.80
2015,06,11,17,04,7.40
2015,06,11,17,05,9.10
2015,06,11,17,06,5.50
2015,06,11,17,07,4.10
2015,06,11,17,08,4.10
2015,06,11,17,09,7.40
2015,06,11,17,10,6.70
2015,06,11,17,11,8.40
2015,06,11,17,12,4.90
2015,06,11,17,13,4.90
2015,06,11,17,14,5.80
2015,06,11,17,15,4.70
2015,06,11,17,16,7.10
2015,06,11,17,17,7.70
2015,06,11,17,18,7.70
2015,06,11,17,19,6.20
2015,06,11,17,20,7.10
2015,06,11,17,21,9.30
2015,06,11,17,22,7.30
2015,06,11,17,23,3.80
2015,06,11,17,24,2.70
2015,06,11,17,25,1.80
2015,06,11,17,26,7.90
2015,06,11,17,27,12.30
2015,06,11,17,28,8.90
2015,06,11,17,29,8.20
2015,06,11,17,30,4.30
2015,06,11,17,31,4.70
2015,06,11,17,32,4.90
2015,06,11,17,33,4.00
2015,06,11,17,34,5.20
2015,06,11,17,35,2.80
2015,06,11,17,36,3.40
2015,06,11,17,37,2.20
2015,06,11,17,38,4.10
2015,06,11,17,39,6.90
2015,06,11,17,40,4.00
2015,06,11,17,41,4.30
2015,06,11,17,42,4.00
2015,06,11,17,43,4.70
2015,06,11,17,44,3.10
2015,06,11,17,45,9.70
2015,06,11,17,46,12.20
2015,06,11,17,47,6.10
2015,06,11,17,48,5.80
2015,06,11,17,49,4.40
2015,06,11,17,50,8.70
2015,06,11,17,51,12.80
2015,06,11,17,52,9.40
2015,06,11,17,53,13.30
2015,06,11,17,54,7.50
2015,06,11,17,55,5.00
2015,06,11,17,56,8.00
2015,06,11,17,57,11.00
2015,06,11,17,58,8.40
2015,06,11,17,59,4.00
2015,06,11,18,00,1.20
2015,06,11,18,01,3.70
2015,06,11,18,02,4.00
2015,06,11,18,03,9.90
2015,06,11,18,04,3.40
2015,06,11,18,05,4.60